Regional Weather Roundup
Issued by NWS Charleston, SC

Current Version | Previous Version | Graphics & Text | Print | Product List | Glossary On
Versions: 1 2 3 4 5 6 7 8 9 10 11 12 13 14 15 16 17 18 19 20 21 22 23 24 25 26 27 28 29 30 31 32 33 34 35 36 37 38 39 40 41 42 43 44 45 46 47 48 49 50
000
ASUS42 KCHS 012111
RWRCHS

REGIONAL WEATHER ROUNDUP
NATIONAL WEATHER SERVICE CHARLESTON SC
400 PM EST SUN MAR 01 2015

NOTE: "FAIR" INDICATES FEW OR NO CLOUDS BELOW 12,000 FEET WITH NO
SIGNIFICANT WEATHER AND/OR OBSTRUCTIONS TO VISIBILITY.

NOT ALL STATIONS ARE QUALITY CONTROLLED BY THE NATIONAL
WEATHER SERVICE. USE DATA WITH CAUTION...ESPECIALLY
DEWPOINT OBSERVATIONS.

SCZ027-030-031-034>040-042>050-012200-
...SOUTHEAST SOUTH CAROLINA...

CITY           SKY/WX    TMP DP  RH WIND       PRES   REMARKS
N CHARLESTON   CLOUDY    44  43  96 N6        30.39F FOG
WATERFRONT PRK   N/A     45 N/A N/A N8          N/A
MOUNT PLEASANT LGT RAIN  46  45  93 N6        30.38F
PINOPOLIS      NOT AVBL
MONCKS CORNER  LGT RAIN  43  39  87 N3        30.39F
SUMMERVILLE    RAIN      43  43 100 CALM      30.40F
BEAUFORT MCAS  CLOUDY    47  45  93 N8        30.39F FOG
BEAUFORT ARPT  CLOUDY    46  46 100 CALM      30.38F
HILTON HEAD IS CLOUDY    46  46 100 N6        30.39F
WALTERBORO     CLOUDY    45  45 100 N3        30.41S
ALLENDALE      CLOUDY    45  43  93 N7        30.39F

...SOUTHERN MIDLANDS AND PEE DEE...

CITY           SKY/WX    TMP DP  RH WIND       PRES   REMARKS
GEORGETOWN     NOT AVBL
KINGSTREE      NOT AVBL
ORANGEBURG     CLOUDY    42  38  85 NW5       30.41F
BARNWELL       CLOUDY    45  43  93 N5        30.41F
AIKEN          CLOUDY    41  41 100 CALM      30.43S FOG
MANNING        CLOUDY   N/A N/A N/A N6        30.41S
COLUMBIA       CLOUDY    41  38  89 N3        30.41F FOG
SUMTER         CLOUDY    40  38  94 N2        30.39F
FLORENCE       CLOUDY    39  37  92 N6        30.41F FOG     WCI  35
MYRTLE BEACH   CLOUDY    46  43  87 N9        30.40F FOG
N MYRTLE BEACH CLOUDY    49  43  80 NW8       30.37F

$$

GAZ063-065-086>088-099>101-113>116-118-119-134>141-150-012200-
...SOUTHEAST GEORGIA...

CITY           SKY/WX    TMP DP  RH WIND       PRES   REMARKS
SAVANNAH ARPT  CLOUDY    50  45  83 NE5       30.38F
HUNTER AAF     CLOUDY    51  48  89 N3        30.35F
FORT STEWART   CLOUDY    52  47  83 N6        30.35F
STATESBORO     CLOUDY    46  46 100 N3        30.39F
SYLVANIA       CLOUDY    45  45  99 NE3       30.40F
CLAXTON        CLOUDY    48  46  93 E5        30.38F

...CSRA...CENTRAL AND FAR SOUTHEAST GEORGIA...

CITY           SKY/WX    TMP DP  RH WIND       PRES   REMARKS
THOMSON        CLOUDY    42  42 100 CALM      30.45F
AUGUSTA-BUSH   CLOUDY    42  40  92 CALM      30.41F FOG
AUGUSTA-DANIEL CLOUDY    43  40  89 N5        30.41F
SWAINSBORO     CLOUDY    48  45  87 E5        30.39F
VIDALIA        CLOUDY    50  46  87 N5        30.38F
EASTMAN        CLOUDY    48  48 100 CALM      30.41S
HAZLEHURST     CLOUDY    51  50  97 N3        30.36S
ALMA           CLOUDY    55  50  83 CALM      30.35F
WAYCROSS       CLOUDY    60  55  81 NE3       30.35F
JESUP          CLOUDY    55  52  88 E3        30.36F
BAXLEY         CLOUDY    54  50  87 NE3       30.36S
BRUNSWICK      CLOUDY    57  52  82 NE5       30.37F
SAINT SIMONS   CLOUDY    55  51  86 NE7       30.36F

$$

SCZ027-028-034-036>038-045-046-048>050-GAZ119-141-012200-
...LAKE AND SUPPLEMENTAL COASTAL OBSERVATIONS...

STATION/POSITION TIME  TEMP    WIND        PRES    WAVE   SWELL
                       AIR SEA DIR/SP/G            HT/PER HT/PER/DIR
                 (UTC) (F)     (DEG/KT/KT) (MB)    (FT/S) (FT/S/D)
UPR LAKE MARION  NOT AVBL
WINYAH BAY       1945   44     320/  7     1028.0
LAKE MURRAY      2000   38      CALM  /  5 1029.8F
ACE BASIN NERRS  NOT AVBL
FORT PULASKI     2012   48 48  360/  6/  7 1029.4F
SAPELO ISLAND    2000   52     360/  5     1029.0S

$$

ANZ835-935-AMZ111-154-330-350-352-354-370-450-454-472-012200-
...C-MAN AND BUOY OBSERVATIONS...

STATION/POSITION TIME  TEMP    WIND        PRES    WAVE   SWELL
                       AIR SEA DIR/SP/G            HT/PER HT/PER/DIR
                 (UTC) (F)     (DEG/KT/KT) (MB)    (FT/S) (FT/S/D)
BUOY 41004       2050   55 69  350/ 12/ 14 1027.8F   8/ 8   7/ 8
BUOY 41008       2050   48 53   20/ 12/ 14 1028.2F   6/ 8   5/110/ 8
FOLLY BEACH CMAN 2100   45     350/  6/  7 1029.0F
CAPERS NEARSHORE NOT AVBL
FRIPP NEARSHORE  2000   45     350/ 10/ 12 1028.1F


STATION/POSITION TIME  TEMP    WIND        PRES    WAVE   SWELL
                       AIR SEA DIR/SP/G            HT/PER HT/PER/DIR
                 (UTC) (F)     (DEG/KT/KT) (MB)    (FT/S) (FT/S/D)
5E ST. MARYS GA  2021      52                N/A     6/ 9   2/ 90/11
FRYING PAN BUOY  2050   66 62  180/ 12/ 16 1028.1F   6/ 6   3/120/ 7
BUOY 41025       NOT AVBL
CAPE LOOKOUT NC  2000   56     160/ 10/ 10 1028.6F
BUOY 41002       2050   69 72  120/ 17/ 21 1029.4F   8/ 8   3/ 80/10
BUOY 41010       2020   72 75  100/ 16/ 21 1026.8F
ST AUGUSTINE FL  2100   51     360/ 18/ 20 1028.0S


$$


USA.gov is the U.S. government's official web portal to all federal, state and local government web resources and services.